Location: Unspecified
(0.0000°N, 0.0000°E)
Time: 14:39:52
(UTC+00:00)

SR - All Passes

Search period start: 01 August 2021 00:00
Search period end: 11 August 2021 00:00
Orbit: 577 x 877 km, 66.7° (Epoch: 31 July)

Date Brightness Start Highest point End Pass type
(mag) Time Alt. Az. Time Alt. Az. Time Alt. Az.
01 Aug - 03:34:51 10° SSE 03:39:14 22° ESE 03:43:39 10° ENE visible
01 Aug - 05:16:00 10° SW 05:21:05 31° WNW 05:26:11 10° N visible
01 Aug - 16:01:27 10° N 16:05:26 39° ENE 16:09:22 10° SE daylight
02 Aug - 04:25:30 10° SSW 04:31:20 73° WNW 04:37:12 10° NNE visible
02 Aug - 15:13:43 10° NE 15:15:41 13° ENE 15:17:39 10° E daylight
02 Aug - 16:54:07 10° WNW 16:57:24 22° WSW 17:00:41 10° SSW daylight
03 Aug - 03:35:59 10° S 03:41:35 47° ESE 03:47:13 10° NE visible
03 Aug - 05:20:33 10° W 05:23:28 14° WNW 05:26:23 10° NW visible
03 Aug - 16:03:29 10° NNW 16:07:42 71° WSW 16:11:53 10° SSE daylight
04 Aug - 02:47:40 10° SSE 02:51:49 20° ESE 02:56:01 10° ENE visible
04 Aug - 04:28:27 10° SW 04:33:41 33° WNW 04:38:55 10° N visible
04 Aug - 15:14:07 10° N 15:17:59 34° ENE 15:21:49 10° SE daylight
05 Aug - 03:38:04 10° SSW 03:43:55 80° WNW 03:49:49 10° NNE visible
05 Aug - 14:26:49 10° NE 14:28:14 11° ENE 14:29:39 10° E daylight
05 Aug - 16:06:30 10° NW 16:09:57 25° WSW 16:13:25 10° SSW daylight
06 Aug - 02:48:39 10° S 02:54:11 43° ESE 02:59:44 10° NE visible
06 Aug - 04:32:44 10° WSW 04:36:03 15° WNW 04:39:21 10° NW visible
06 Aug - 15:16:01 10° NNW 15:20:14 80° WSW 15:24:28 10° SSE daylight
07 Aug - 02:00:30 10° SSE 02:04:25 18° ESE 02:08:21 10° ENE visible
07 Aug - 03:40:56 10° SW 03:46:16 36° WNW 03:51:37 10° N visible
07 Aug - 14:26:48 10° N 14:30:32 30° ENE 14:34:15 10° SE daylight
08 Aug - 02:50:39 10° SSW 02:56:31 87° WNW 03:02:24 10° NNE visible
08 Aug - 13:40:35 10° ENE 13:40:47 10° ENE 13:40:58 10° ENE daylight
08 Aug - 15:18:54 10° NW 15:22:30 27° WSW 15:26:07 10° S daylight
09 Aug - 02:01:19 10° S 02:06:46 40° ESE 02:12:13 10° NE visible
09 Aug - 03:44:58 10° WSW 03:48:38 17° WNW 03:52:17 10° NNW visible
09 Aug - 14:28:34 10° NNW 14:32:47 90° ENE 14:37:01 10° SSE daylight
10 Aug - 01:13:22 10° SSE 01:17:00 17° ESE 01:20:38 10° ENE night (unlit)
10 Aug - 02:53:24 10° SW 02:58:51 40° WNW 03:04:18 10° N visible
10 Aug - 13:39:28 10° N 13:43:05 27° ENE 13:46:40 10° SE daylight
10 Aug - 15:24:21 10° WSW 15:24:49 10° WSW 15:25:16 10° WSW daylight
